This is the latest recevied weather packets stored in our database for station/object N8ESC. If no packets are shown the sender has not sent any weather packets the latest 10 day(s).
| Time | Temp. | Humidity | Pressure | Rain* | Wind** | Luminosity | Snow |
|---|---|---|---|---|---|---|---|
| 1778086355 | 6.11° C | 44% | 1011.6 hPa | 0 mm | - | 166 W/m² | - |
| 1778086052 | 6.11° C | 44% | 1011.6 hPa | 0 mm | - | 145 W/m² | - |
| 1778085749 | 6.11° C | 43% | 1011.8 hPa | 0 mm | - | 136 W/m² | - |
| 1778085446 | 6.11° C | 43% | 1011.5 hPa | 0 mm | - | 145 W/m² | - |
| 1778085140 | 6.11° C | 44% | 1011.6 hPa | 0 mm | - | 172 W/m² | - |
| 1778084837 | 6.11° C | 43% | 1011.6 hPa | 0 mm | - | 226 W/m² | - |
| 1778084535 | 6.11° C | 44% | 1011.5 hPa | 0 mm | - | 205 W/m² | - |
| 1778084232 | 5.56° C | 44% | 1011.5 hPa | 0 mm | - | 199 W/m² | - |
| 1778083929 | 6.11° C | 44% | 1011.3 hPa | 0 mm | - | 199 W/m² | - |
| 1778083626 | 5.56° C | 44% | 1011.6 hPa | 0 mm | - | 216 W/m² | - |
| 1778083323 | 6.11° C | 43% | 1011.6 hPa | 0 mm | - | 190 W/m² | - |
| 1778083021 | 5.56° C | 44% | 1011.7 hPa | 0 mm | - | 206 W/m² | - |
| 1778082718 | 5.56° C | 44% | 1011.4 hPa | 0 mm | - | 223 W/m² | - |
| 1778081580 | 5.56° C | 44% | 1011.5 hPa | 0 mm | - | 228 W/m² | - |
| 1778081277 | 5.56° C | 44% | 1011.5 hPa | 0 mm | - | 194 W/m² | - |
| 1778080974 | 5.56° C | 45% | 1011.4 hPa | 0 mm | - | 206 W/m² | - |
| 1778080673 | 6.11° C | 44% | 1011.5 hPa | 0 mm | - | 233 W/m² | - |
| 1778080369 | 5.56° C | 45% | 1011.3 hPa | 0 mm | - | 269 W/m² | - |
| 1778080066 | 5° C | 46% | 1011.3 hPa | 0 mm | - | 260 W/m² | - |
| 1778079763 | 5.56° C | 46% | 1011.4 hPa | 0 mm | - | 263 W/m² | - |
| 1778079460 | 5.56° C | 47% | 1011.3 hPa | 0 mm | - | 296 W/m² | - |
| 1778079156 | 5.56° C | 47% | 1011.3 hPa | 0 mm | - | 301 W/m² | - |
| 1778078854 | 5° C | 49% | 1011.2 hPa | 0 mm | - | 260 W/m² | - |
| 1778078551 | 5.56° C | 49% | 1011.5 hPa | 0 mm | - | 261 W/m² | - |
| 1778078248 | 5° C | 52% | 1011.5 hPa | 0 mm | - | 253 W/m² | - |
* Rain latest hour (hover to see other rain measurements)
** Current wind speed in m/s (hover to see current wind gust speed)